Location: Newark
(41.8083°N, 72.2500°W)
Time: 09:58:55
(UTC+00:00)

Explorer 11/Cluster Stage 4 - Pass Details

Date: 13 December 2021
Orbit: 467 x 1255 km, 28.8° (Epoch: 23 January)

Event Time Altitude Azimuth Distance (km) Brightness Sun altitude
Rises 03:11:13 0° 219° (SW) 2,553 - -63.3°
Reaches altitude 10° 03:14:49 10° 183° (S) 1,778 - -63.8°
Maximum altitude 03:16:03 11° 165° (SSE) 1,749 - -64.0°
Drops below altitude 10° 03:17:21 10° 147° (SSE) 1,876 - -64.2°
Sets 03:21:31 0° 113° (ESE) 2,975 - -64.8°
